Regional Weather Roundup
Issued by NWS Grand Forks, ND

Home | Current Version | Previous Version | Text Only | Print | Product List | Glossary Off
Versions: 1 2 3 4 5 6 7 8 9 10 11 12 13 14 15 16 17 18 19 20 21 22 23 24 25 26 27 28 29 30 31 32 33 34 35 36 37 38 39 40 41 42 43 44 45 46 47 48 49 50

000
ASUS43 KFGF 031031
RWRFGF
PRAIRIE TO PINES  WEATHER ROUNDUP
NATIONAL WEATHER SERVICE EASTERN NORTH DAKOTA/GRAND FORKS ND
500 AM CDT WED JUN 03 2015

 **SATELLITE DATA USED TO AUGMENT SKY COVER AT AUTOMATED STATIONS**
 *****  WEATHER ACROSS EASTERN NORTH DAKOTA  *****

CITY           SKY/WX    TMP DP  RH WIND       PRES   REMARKS
GRAND FORKS    CLOUDY    61  59  93 N14       29.74R
GRAND FRKS AFB NOT AVBL
GRAND FRKS NWS   N/A     59 N/A N/A N3          N/A
DEVILS LAKE    CLOUDY    48  39  71 N22G28    29.84S
FARGO          CLOUDY    65  61  87 S10       29.69R
WAHPETON ARPT  CLOUDY    63  57  82 S7        29.73S
$$

 ***** WEATHER ACROSS CENTRAL AND WESTERN NORTH DAKOTA  *****

CITY           SKY/WX    TMP DP  RH WIND       PRES   REMARKS
BISMARCK       CLOUDY    55  52  89 N17G25    29.85R
MINOT          CLOUDY    48  46  93 N6        29.95R
JAMESTOWN      CLOUDY    61  59  93 N8        29.76R
MINOT AFB      NOT AVBL
GARRISON         N/A     49  41  74 NE23G31   29.91R
WILLISTON      MOCLDY    51  49  92 NE7       29.98S
DICKINSON      CLOUDY    53  49  86 N13       29.91S
HETTINGER      CLOUDY    54  51  90 NW15      29.92R
$$

 *****  OTHER AIRPORT OBSERVATIONS IN OUR AREA  *****

CITY           SKY/WX    TMP DP  RH WIND       PRES   REMARKS
WALHALLA       FAIR      52  39  62 MISG      29.86R
GRAFTON AIRPOR CLOUDY    52  50  93 N12       29.81R
VALLEY CITY AR CLOUDY    59  59 100 N7        29.76S FOG
CANDO          CLOUDY    48  41  76 N22G31    29.88R
CAVALIER APRT  CLOUDY    50  43  76 N13       29.83R HAZE
GWINNER        NOT AVBL
SHEYENNE NWR     N/A     62  62  98 W7        29.95
ROLLA          LGT RAIN  45  45 100 NE21G26   29.94R
 ***** THE ABOVE OBSERVATIONS ARE NON NWS ARE NOT QUALITY
       CONTROLLED AND MAY MIS-REPORT RAIN FOR SNOW...
$$

  *****  WEATHER ACROSS NORTHERN MINNESOTA  *****

CITY           SKY/WX    TMP DP  RH WIND       PRES   REMARKS
FLAG ISLAND    CLOUDY    57  55  94 NE13      29.80S
WARROAD        FOG       57  54  88 NE10      29.80S VSB 1
ROSEAU         CLOUDY    59  54  82 NE13      29.79F HAZE
HALLOCK        CLOUDY    55  54  94 N8        29.80R
THF RVR FALLS  CLOUDY    59  57  94 NE9       29.75F
BAUDETTE       CLOUDY    59  57  93 E7        29.79S
WASKISH        CLOUDY    57  55  94 E3        29.78S
CROOKSTON      CLOUDY    61  59  94 NE6       29.73S
STEPHEN NDAWN    N/A     61  61 100 NE8         N/A
GREENBUSH NDAW   N/A     59  57  94 NE12        N/A
$$
  *****  WEATHER ACROSS CENTRAL AND WEST MINNESOTA  *****

CITY           SKY/WX    TMP DP  RH WIND       PRES   REMARKS
FOSSTON        MOCLDY    61  57  88 CALM      29.73S
BEMIDJI        MOCLDY    60  56  89 SE6       29.75R
PARK RAPIDS    CLOUDY    63  56  78 SE5       29.76F
ELBOW LAKE     FAIR      62  58  86 S12       29.76R
WADENA         PTCLDY    61  55  82 S12       29.75F
DETROIT LAKES  MOCLDY    63  59  88 S8        29.74S
MOORHEAD       CLOUDY    64  61  88 S7        29.70S
FERGUS FALLS   CLOUDY    63  57  82 S13       29.74S
MORRIS MN      CLOUDY    63  57  82 SE10      29.76F
STAPLES        CLEAR     61  55  82 S10       29.77F
$$
  *****  WEATHER ELSEWHERE ACROSS MINNESOTA  *****

CITY           SKY/WX    TMP DP  RH WIND       PRES   REMARKS
DULUTH         CLOUDY    56  47  71 S7        29.86F THUNDER
INTRNTL FALLS  FOG       56  55  97 NE7       29.81S VSB 3/4
ELY            CLOUDY    55  54  94 SE8       29.89R
CLOQUET        LGT RAIN  52  46  82 CALM      29.86S
WHEATON        CLOUDY    63  61  94 S5        29.76S
BRAINERD       MOCLDY    61  56  83 S12       29.81F
HIBBING        LGT RAIN  56  54  93 SE7       29.87F
ALEXANDRIA     MOCLDY    62  56  80 S10       29.80F
SAINT CLOUD    CLOUDY    64  55  72 S16G23    29.83F
MINNEAPOLIS    CLOUDY    65  55  70 S10       29.89S
$$

  *****  WEATHER ACROSS SOUTH DAKOTA  *****

CITY           SKY/WX    TMP DP  RH WIND       PRES   REMARKS
SIOUX FALLS    CLOUDY    64  60  87 S8        29.80F
BROOKINGS      CLOUDY    64  59  82 S9        29.80S
WATERTOWN      CLOUDY    65  61  87 S6        29.78R
HURON          RAIN      67  62  84 W10       29.80R
SISSETON         N/A     69  64  84 W10       29.73R
ABERDEEN       CLOUDY    66  62  87 NW7       29.77R
MITCHELL       LGT RAIN  65  63  93 N9        29.78F
PIERRE         CLOUDY    62  58  86 N13       29.78S
MOBRIDGE       CLOUDY    59  57  93 NW14      29.79R
RAPID CITY     CLEAR     55  50  83 N21       29.92R
$$

  *****  SOME WEATHER IN NEARBY STATES *****

CITY           SKY/WX    TMP DP  RH WIND       PRES   REMARKS
GLASGOW MT     CLOUDY    54  52  93 SE8       29.97R
GREAT FALLS MT PTCLDY    46  45  96 SW6       29.97R
CHEYENNE WY    CLEAR     50  45  83 NW10      30.04R
SCOTTSBLUFF NE CLEAR     57  52  83 NE6       29.96R
OMAHA NE       TSTM      67  62  84 S5G20     29.89F
DES MOINES IA  MOCLDY    62  55  77 S10       29.94S
DAVENPORT IA   PTCLDY    55  50  83 E7        30.03R
CHICAGO IL     MOCLDY    52  46  80 SE3       30.07S
EAU CLAIRE WI  PTCLDY    57  48  72 S8        29.95S
LA CROSSE WI   PTCLDY    59  51  75 SE3       29.97S
$$

  *****  SOME NATIONAL WEATHER *****

CITY           SKY/WX    TMP DP  RH WIND       PRES   REMARKS
LA GUARDIA NY  CLOUDY    53  48  83 NE9       30.21R
RALEIGH NC     CLOUDY    64  61  90 NE6       30.02R
ATLANTA GA     PTCLDY    66  62  87 E8        29.96S
NEW ORLEANS LA MOCLDY    76  69  79 NE9       29.91S
OKLAHOMA CITY  CLEAR     68  64  87 S10       29.90S
ALBUQUERQUE NM CLEAR     63  24  22 SE6       30.05R
SALT LAKE CITY PTCLDY    59  50  72 CALM      29.90S
LOS ANGELES CA MOCLDY    61  58  90 S5        29.93F
BOISE ID       CLEAR     52  48  86 CALM      29.97F
SEATTLE WA     CLOUDY    55  49  80 S7        30.07S
$$

*** WEATHER ACROSS MANITOBA...SASKATCHEWAN AND ONTARIO ***
                ***ONTARIO***

CITY           SKY/WX    TMP DP  RH WIND       PRES   REMARKS
GERALDTON      LGT RAIN  48  46  93 VRB2      29.92F FOG
THUNDER BAY    CLOUDY    48  45  87 NE5       29.91F
SIOUX LOOKOUT  CLOUDY    55  55 100 CALM      29.85S FOG
TORONTO        PTCLDY    48  43  81 NE6       30.22R
BIG TROUT LK   CLEAR     39  36  87 W6        29.87S
PICKLE LAKE    NOT AVBL
DRYDEN         FOG       55  55 100 NE6       29.85S VSB 1
KENORA         CLOUDY    57  57 100 E5        29.85
$$
                *** MANITOBA***

CITY           SKY/WX    TMP DP  RH WIND       PRES   REMARKS
BRANDON        CLOUDY    50  41  71 N10       29.96S
DAUPHIN        CLOUDY    52  39  62 NW3       30.00R
ISLAND LAKE    CLEAR     45  36  70 W7        29.95R
PILOT MOUND      N/A     48  39  71 N17G23      N/A
THE PAS        PTCLDY    34  32  93 CALM      30.03R
THOMPSON       CLEAR     36  30  80 NW6       29.98R
WINNIPEG       CLOUDY    54  37  54 N20       29.88S
LYNN LAKE      CLEAR     34  30  86 NW6       30.04R
CHURCHILL      CLOUDY    34  34 100 N24       29.83R WCI  21
GILLAM         MOCLDY    43  34  70 NW20      29.88R
$$
                ***SASKATCHEWAN***

CITY           SKY/WX    TMP DP  RH WIND       PRES   REMARKS
ESTEVAN        MOCLDY    46  39  76 NE3       29.99R
KINDERSLEY     CLOUDY    48  30  49 E13       29.98S
LLOYDMINSTER   CLOUDY    52  36  54 SE8       29.98S
PRINCE ALBERT  CLOUDY    37  34  87 CALM      30.03R
REGINA         CLOUDY    48  41  76 SE7       30.00S
YORKTON        PTCLDY    48  43  81 CALM      30.03R
N. BATTLEFORD  CLOUDY    43  34  70 E6        30.02S
LA RONGE       PTCLDY    39  32  75 NE2       30.04S
SASKATOON      CLOUDY    45  37  76 NE7       30.03R
SWIFT CURRENT  CLOUDY    50  34  53 SE7       29.98S
$$
NOTE: THESE ARE AUTOMATED STATIONS WITH LIMITED QUALITY CONTROL
      "FAIR" INDICATES FEW OR NO CLOUDS BELOW 12,000 FEET WITH NO
      SIGNIFICANT WEATHER AND/OR OBSTRUCTIONS TO VISIBILITY.
      SKY/WX - SKY CONDITION AND SIGNIFICANT WEATHER.
      TMP - AIR TEMPERATURE.    DP   - DEWPOINT TEMPERATURE.
      RH  - RELATIVE HUMIDITY.  PRES - PRESSURE.
      HX  - HEAT INDEX.         WCI  - WIND CHILL INDEX.
$



USA.gov is the U.S. government's official web portal to all federal, state and local government web resources and services.